Bettles, AK

1:23 PM AKST on November 12, 2019 (GMT -0900)
Bettles

Weather History for PABT - May, 2019

Change the Weather History Date:

Wednesday, May 1, 2019

  Actual Average Record
Temperature  
Mean Temperature 44 °F -  
Max Temperature 57 °F 44 °F 60 °F (1997)
Min Temperature 32 °F 26 °F -1 °F (1992)
Degree Days  
Heating Degree Days 20    
Moisture  
Dew Point 23 °F    
Average Humidity 43    
Maximum Humidity 75    
Minimum Humidity 18    
Precipitation  
Precipitation 0.00 in - - ()
Snow  
Snow 0.00 in - - ()
Snow Depth 33.00 in    
Sea Level Pressure  
Sea Level Pressure 30.16 in    
Wind  
Wind Speed 4 mph (North)    
Max Wind Speed 7 mph    
Max Gust Speed -    
Visibility 10 miles    
Events      
Averages and records for this station are not official NWS values.
T = Trace of Precipitation, MM = Missing Value Source: NWS Daily Summary

Daily Weather History Graph

Daily Weather History Graph

Search for Another Location

Airport or City:

Astronomy

May. 01, 2019 Rise Set
Actual Time 5:14 AM AKDT 10:54 PM AKDT
Civil Twilight 3:42 AM AKDT 12:30 AM AKDT
Nautical Twilight Sun does not rise Sun does not rise
Astronomical Twilight Sun does not rise Sun does not rise
Moon 6:18 AM AKDT (5/1) 5:50 PM AKDT (5/1)
Length of Visible Light 20h 48m
Length of Day
17h 40m
Waning Crescent, 10% of the Moon is Illuminated
May 1
Waning Crescent
May 4
New
May 11
First Quarter
May 18
Full
May 26
Last Quarter

Hourly Weather History & Observations

Time (AKDT) Temp. Windchill Dew Point Humidity Pressure Visibility Wind Dir Wind Speed Gust Speed Precip Events Conditions
12:53 AM 39.0 °F 36.8 °F 21.9 °F 50% 30.33 in 10.0 mi NW 3.5 mph - N/A   Clear
1:53 AM 37.9 °F 34.4 °F 23.0 °F 55% 30.32 in 10.0 mi NNW 4.6 mph - N/A   Clear
2:53 AM 36.0 °F 32.1 °F 23.0 °F 59% 30.31 in 10.0 mi NW 4.6 mph - N/A   Clear
3:53 AM 34.0 °F 29.8 °F 21.9 °F 61% 30.29 in 10.0 mi NW 4.6 mph - N/A   Clear
4:53 AM 33.1 °F 28.7 °F 21.9 °F 64% 30.28 in 10.0 mi North 4.6 mph - N/A   Clear
5:53 AM 33.1 °F 26.9 °F 21.9 °F 64% 30.27 in 10.0 mi NNW 6.9 mph - N/A   Clear
6:53 AM 34.0 °F 29.8 °F 23.0 °F 64% 30.25 in 10.0 mi North 4.6 mph - N/A   Clear
7:53 AM 37.9 °F 33.5 °F 21.9 °F 53% 30.23 in 10.0 mi NNW 5.8 mph - N/A   Clear
8:53 AM 41.0 °F 37.1 °F 23.0 °F 49% 30.22 in 10.0 mi NW 5.8 mph - N/A   Clear
9:53 AM 43.0 °F 40.3 °F 23.0 °F 45% 30.21 in 10.0 mi North 4.6 mph - N/A   Clear
10:53 AM 48.9 °F - 21.9 °F 35% 30.19 in 10.0 mi Calm Calm - N/A   Clear
11:53 AM 46.0 °F 43.1 °F 23.0 °F 40% 30.18 in 10.0 mi North 5.8 mph - N/A   Clear
12:53 PM 48.0 °F - 24.1 °F 39% 30.17 in 10.0 mi North 3.5 mph - N/A   Clear
1:53 PM 52.0 °F - 21.9 °F 31% 30.14 in 10.0 mi NNE 4.6 mph - N/A   Partly Cloudy
2:53 PM 52.0 °F - 21.9 °F 31% 30.11 in 10.0 mi Calm Calm - N/A   Partly Cloudy
3:53 PM 54.0 °F - 23.0 °F 30% 30.09 in 10.0 mi ENE 5.8 mph - N/A   Partly Cloudy
4:53 PM 54.0 °F - 24.1 °F 31% 30.08 in 10.0 mi NE 5.8 mph - N/A   Partly Cloudy
5:53 PM 55.0 °F - 24.1 °F 30% 30.07 in 10.0 mi NE 3.5 mph - N/A   Partly Cloudy
6:53 PM 57.0 °F - 21.9 °F 26% 30.05 in 10.0 mi ENE 4.6 mph - N/A   Partly Cloudy
7:53 PM 55.9 °F - 23.0 °F 28% 30.03 in 10.0 mi NE 4.6 mph - N/A   Partly Cloudy
8:53 PM 54.0 °F - 24.1 °F 31% 30.02 in 10.0 mi Calm Calm - N/A   Partly Cloudy
9:53 PM 48.9 °F - 24.1 °F 38% 30.02 in 10.0 mi Calm Calm - N/A   Partly Cloudy
10:53 PM 37.9 °F - 27.0 °F 65% 30.02 in 10.0 mi Calm Calm - N/A   Partly Cloudy
11:53 PM 34.0 °F - 27.0 °F 75% 30.02 in 10.0 mi Calm Calm - N/A   Partly Cloudy